Wind_Speed
15 14 14 14 14 14 14 14 13 13 13 14 14 14 15 16 12 6 5 8 9 9 9 9 9 8 6 5 8 6 0 18 20 20 18 20 21 8 6 5 5 4 4 8 14 14 12
16 15 14 14 15 15 15 15 14 14 13 14 13 14 14 15 14 7 4 4 6 8 8 8 8 8 7 3 4 3 10 15 19 20 18 17 14 11 6 4 5 4 5 9 10 13 6
20 15 15 15 15 16 15 16 15 16 15 14 14 13 13 13 13 8 4 2 3 6 8 8 8 8 8 10 3 5 12 14 15 15 17 15 10 11 7 4 2 1 4 6 2 1 4
19 18 18 18 18 17 17 17 17 17 17 16 15 14 13 11 11 8 5 4 4 5 7 8 8 7 6 6 9 8 14 14 13 12 10 14 9 8 2 4 4 3 4 3 2 1 3
19 19 19 20 20 20 19 19 19 18 18 18 16 15 13 11 10 9 6 3 2 4 7 8 8 7 4 4 9 12 13 13 13 11 8 13 11 4 4 5 4 5 3 3 6 2 2
20 20 21 21 21 21 21 21 20 20 19 18 17 15 13 11 9 8 4 1 3 6 9 8 6 4 6 3 6 14 14 12 11 13 10 6 4 3 3 4 5 5 3 3 4 2 4
23 22 22 22 22 22 21 20 20 19 18 17 16 14 12 11 8 6 4 4 5 3 10 6 4 1 3 6 9 14 16 14 14 7 4 1 3 7 8 6 3 5 3 3 2 3 2
24 23 23 23 22 21 20 20 19 19 17 16 15 13 11 10 9 7 8 5 5 2 3 11 10 8 4 7 4 15 17 8 6 4 5 4 7 5 5 4 4 2 1 5 5 2 6
24 22 22 21 22 21 20 20 19 19 18 16 15 14 11 10 8 8 10 8 5 3 1 2 4 5 10 9 2 15 18 8 4 5 5 6 3 5 6 4 5 4 5 5 8 1 2
23 23 23 22 22 22 21 20 20 19 18 16 15 14 11 8 7 10 10 9 6 4 4 2 3 2 5 6 2 9 14 4 2 6 7 4 2 4 4 5 7 3 8 6 4 3 3
20 23 23 24 24 22 21 21 21 20 17 14 13 12 9 9 5 12 7 9 6 4 1 1 2 4 6 5 9 3 8 2 6 5 5 4 4 3 3 5 8 6 4 6 4 4 1
24 26 25 24 25 24 22 21 21 20 16 12 7 6 3 9 11 10 10 9 7 4 5 2 2 1 4 5 3 4 3 5 3 3 1 5 2 2 4 2 4 5 5 5 4 3 2
19 20 25 26 26 25 23 22 21 21 17 8 2 3 2 6 9 12 11 10 4 3 3 3 3 3 5 5 4 5 5 7 3 2 3 4 1 1 1 2 1 3 5 2 1 0 5
23 24 25 26 27 26 24 23 23 22 15 3 9 7 4 2 8 12 13 3 4 2 2 2 3 3 5 5 4 4 4 3 5 4 3 2 1 5 8 2 1 4 6 4 5 3 2
24 26 28 28 28 26 25 26 24 21 9 12 6 5 10 2 8 12 4 3 2 1 1 2 2 4 2 3 3 5 4 3 5 5 3 1 3 5 2 4 3 2 3 1 1 1 1
25 27 27 30 29 27 28 27 25 20 4 9 4 2 12 4 8 11 4 4 3 2 3 1 3 1 3 4 3 4 2 3 3 6 1 1 3 2 5 4 5 3 3 1 2 3 4
26 27 28 29 30 26 27 28 24 17 3 6 3 1 9 8 10 6 4 4 4 5 1 4 2 3 3 2 3 3 3 4 5 3 8 2 1 5 3 7 3 5 4 4 1 2 3
26 28 29 29 28 27 27 27 25 16 2 3 2 2 7 8 5 4 3 3 3 6 11 6 4 5 3 3 4 3 4 4 7 2 3 1 3 1 3 3 8 4 3 3 2 2 1
26 27 28 30 29 25 26 28 26 16 5 3 3 2 8 7 3 3 3 4 7 6 5 5 4 5 3 3 3 2 4 3 10 3 3 2 1 2 1 3 1 6 3 2 1 2 3
27 27 29 30 31 29 28 28 27 17 7 4 3 2 10 13 7 6 5 3 3 8 5 7 3 4 4 4 6 3 3 2 5 4 3 1 2 4 5 2 3 3 2 2 3 3 3
26 27 29 30 31 30 30 29 29 18 9 4 5 2 2 3 7 5 4 2 3 3 4 8 4 5 3 3 3 3 3 4 4 7 4 3 3 2 2 1 4 2 2 1 4 3 4
26 28 29 30 31 32 32 32 30 26 15 11 5 4 8 4 3 4 6 3 3 3 4 3 5 2 4 3 3 3 2 1 1 6 3 4 2 2 2 7 7 4 3 4 3 2 3
28 28 28 29 31 31 31 31 32 31 23 12 11 10 4 8 2 3 2 2 3 5 6 6 5 4 3 2 3 2 2 1 2 2 1 2 2 3 3 3 5 2 2 1 2 2 1
27 28 29 29 29 31 30 29 29 29 31 23 14 7 4 2 3 3 3 5 4 2 5 4 6 3 3 2 7 11 11 9 8 9 6 3 3 3 2 1 1 1 2 2 2 3 3
27 26 28 28 28 29 29 28 25 23 23 23 19 7 5 4 9 6 6 6 7 8 4 4 3 2 1 4 3 3 1 2 4 7 5 4 2 3 3 2 0 3 3 1 3 2 2
25 26 26 27 27 28 28 27 25 20 18 16 18 12 6 10 2 5 4 3 3 3 2 2 3 3 2 1 2 3 2 1 2 3 7 5 5 3 2 3 4 4 2 1 5 3 1
24 25 26 26 26 26 25 27 25 20 15 15 15 11 6 8 4 3 3 3 4 3 3 2 2 3 4 2 2 2 1 1 2 2 3 3 3 3 0 2 2 3 3 4 4 3 4
24 25 25 25 24 24 24 25 23 22 12 12 13 13 5 7 8 6 6 6 5 3 3 2 3 5 3 3 2 0 2 2 4 2 1 2 2 1 2 3 4 2 1 3 2 1 13
23 24 24 24 24 24 23 23 23 20 13 8 7 9 8 7 10 12 13 11 10 7 6 3 4 3 2 3 2 3 3 3 4 1 4 1 2 2 3 2 1 4 3 3 5 16 19
Wind_Direction
351 346 343 342 341 339 340 338 338 340 343 344 346 349 351 355 354 324 266 241 233 229 227 228 225 213 207 228 254 299 206 169 174 173 187 176 175 154 163 171 149 176 251 249 262 277 275
354 349 346 344 340 338 336 334 332 334 336 336 337 340 346 353 359 350 329 254 234 229 226 222 216 209 210 230 245 229 173 172 179 179 187 188 191 170 140 154 172 196 237 269 278 262 239
350 346 344 342 338 334 334 332 333 331 330 329 328 330 339 345 354 353 323 323 253 231 224 218 212 210 233 246 216 181 180 174 181 189 189 184 172 170 161 138 253 253 313 316 279 253 208
353 347 342 339 335 333 331 330 328 327 325 325 323 323 326 333 341 344 332 298 275 225 214 208 208 218 248 233 218 200 186 187 185 192 196 187 167 165 168 127 27 24 49 347 310 133 1
350 345 340 336 333 331 329 326 324 321 320 320 321 318 317 321 328 336 335 320 252 198 193 193 200 208 254 221 214 194 187 187 177 170 157 176 180 155 128 98 15 3 230 206 324 23 106
345 339 338 337 334 330 327 325 321 318 316 314 314 313 310 311 313 320 316 341 143 162 168 178 199 222 230 184 183 181 176 176 154 154 133 145 129 94 53 112 223 192 215 232 255 349 42
344 340 336 335 333 331 328 325 323 321 318 314 310 309 303 300 295 289 244 140 137 155 190 201 196 190 142 154 150 169 166 162 142 156 143 88 135 213 188 195 132 128 174 245 231 229 20
339 337 336 333 332 331 329 328 326 323 321 317 311 305 299 289 278 257 223 212 220 191 273 234 232 224 172 157 134 171 169 169 151 160 126 48 242 196 151 168 179 151 233 261 278 237 156
343 342 344 340 340 335 332 330 327 323 320 316 308 302 296 279 262 234 216 220 227 235 120 237 210 219 216 204 156 176 180 160 125 134 178 166 204 95 137 146 163 206 189 213 224 47 243
351 351 350 347 343 339 336 332 328 323 320 315 307 302 293 264 241 217 209 206 209 197 70 212 208 169 165 170 91 168 175 165 75 181 159 231 264 162 181 197 157 250 208 199 152 113 222
356 351 349 350 347 343 340 336 331 326 323 315 307 307 293 219 200 180 193 186 182 159 23 133 139 128 136 145 132 49 166 121 152 169 127 245 161 147 164 215 162 220 129 165 152 172 85
6 2 358 354 351 347 343 341 337 331 327 316 306 322 314 187 188 184 168 160 147 59 247 93 67 79 93 33 59 103 109 91 81 145 348 247 266 255 215 135 178 138 84 50 54 108 251
359 355 4 359 355 350 348 349 345 337 329 311 170 38 29 170 185 177 166 154 67 159 342 9 30 38 82 12 47 50 49 33 49 126 0 322 248 308 47 126 54 94 72 323 317 166 233
1 1 0 359 355 352 353 354 351 345 337 184 143 67 35 207 185 176 161 72 186 93 51 330 37 72 82 5 37 39 91 69 27 25 79 37 304 3 333 36 206 173 162 172 238 206 235
12 8 7 1 357 354 357 356 357 355 359 151 141 84 21 144 172 171 163 73 101 193 277 358 82 102 63 8 98 88 62 94 42 16 101 42 266 329 25 335 10 150 169 193 175 86 110
10 9 7 5 1 357 357 360 0 3 54 159 158 352 15 116 154 157 80 99 104 28 335 219 112 340 132 352 83 80 114 343 104 45 330 152 304 73 296 340 26 60 9 225 15 262 247
12 11 8 7 3 3 359 359 3 10 55 179 245 127 13 122 133 83 100 93 115 38 57 26 118 95 65 106 58 61 94 24 4 21 56 30 98 302 5 17 334 348 24 17 94 48 251
13 13 10 8 5 8 5 1 0 10 15 194 265 75 9 159 58 44 69 49 59 3 34 41 76 66 75 46 67 91 114 49 357 357 71 29 104 225 83 328 75 66 61 64 152 276 9
13 12 11 9 9 10 10 5 3 4 13 189 131 70 28 163 115 98 86 73 57 26 31 32 63 40 36 80 98 61 84 112 35 52 147 144 158 64 165 269 101 62 5 9 94 89 225
16 11 13 12 11 14 15 13 8 11 21 147 120 65 36 60 63 104 117 71 100 41 61 55 71 67 75 58 24 114 94 77 9 19 31 171 108 161 192 164 118 139 83 50 104 120 224
16 12 13 12 13 18 16 16 19 19 23 117 60 83 57 31 27 73 78 72 100 70 66 41 58 60 79 99 70 83 53 6 51 10 46 81 140 91 185 249 93 97 63 90 178 198 167
15 16 15 14 14 17 19 19 25 29 45 80 80 106 76 71 60 53 18 46 103 106 32 30 96 82 45 93 80 150 109 52 42 3 58 3 113 91 328 54 104 96 16 89 90 126 88
18 14 16 15 15 17 20 21 24 33 47 63 68 82 96 17 38 72 14 122 95 115 40 64 125 105 96 100 63 343 247 185 57 62 84 74 99 71 279 136 139 40 286 27 124 76 81
21 12 15 17 16 16 18 23 25 31 36 47 50 64 80 49 61 75 106 87 91 73 124 114 104 106 133 330 92 77 81 87 86 358 189 134 113 103 204 48 346 156 34 49 106 74 20
18 17 16 15 15 15 18 19 22 32 35 35 39 53 72 99 102 89 89 105 94 79 77 105 85 72 326 136 120 114 66 78 39 33 65 55 119 85 122 192 327 342 308 79 111 286 245
14 11 13 11 13 13 15 14 17 22 34 34 40 48 73 123 19 121 106 117 122 111 59 79 73 79 67 92 107 124 154 146 123 105 42 58 41 109 78 130 235 224 282 308 153 296 39
11 7 9 9 9 9 11 7 10 15 28 32 34 39 66 97 76 114 106 135 116 116 109 100 48 61 35 61 80 113 123 309 119 87 338 11 13 114 107 204 311 248 314 142 83 240 30
6 4 6 3 2 4 6 2 2 5 23 26 33 36 63 98 85 95 99 109 113 104 122 125 93 23 49 72 111 126 94 85 84 98 128 98 76 72 69 57 289 354 94 140 167 45 337
359 360 359 358 356 357 359 356 354 354 2 28 34 42 88 97 110 109 96 93 91 85 109 74 105 92 76 101 53 86 69 49 151 122 25 344 174 196 173 213 160 313 260 149 18 336 330
Height
1502 1499 1497 1494 1492 1490 1488 1486 1484 1483 1480 1479 1477 1475 1473 1471 1467 1466 1465 1465 1466 1468 1469 1471 1473 1474 1475 1477 1474 1473 1472 1474 1477 1480 1484 1486 1489 1491 1494 1495 1497 1499 1497 1497 1496 1496 1496
1502 1498 1496 1494 1491 1489 1487 1485 1484 1481 1479 1478 1476 1475 1472 1470 1467 1465 1464 1464 1465 1466 1468 1469 1471 1473 1475 1476 1472 1472 1473 1475 1477 1480 1483 1485 1486 1489 1491 1493 1496 1495 1495 1494 1492 1491 1493
1501 1498 1496 1493 1490 1488 1486 1484 1482 1480 1478 1476 1475 1472 1470 1468 1466 1464 1463 1463 1463 1465 1467 1468 1470 1471 1472 1472 1471 1472 1474 1476 1478 1480 1481 1484 1485 1488 1489 1492 1493 1493 1495 1492 1489 1489 1490
1501 1498 1495 1492 1489 1486 1484 1481 1480 1478 1476 1474 1472 1470 1468 1466 1465 1463 1462 1462 1463 1463 1465 1467 1469 1471 1469 1468 1469 1471 1473 1475 1478 1480 1482 1483 1485 1487 1488 1490 1492 1494 1497 1498 1489 1488 1489
1500 1497 1493 1490 1487 1485 1482 1479 1477 1475 1473 1471 1469 1467 1466 1464 1463 1461 1461 1460 1461 1462 1464 1466 1468 1469 1467 1466 1467 1469 1472 1474 1477 1479 1481 1482 1485 1486 1488 1493 1499 1500 1500 1501 1493 1489 1488
1499 1496 1492 1488 1485 1482 1479 1476 1473 1471 1469 1467 1466 1464 1463 1461 1460 1460 1459 1459 1459 1461 1463 1466 1467 1471 1465 1464 1464 1467 1471 1473 1476 1479 1481 1483 1484 1488 1492 1494 1500 1498 1501 1501 1497 1492 1490
1498 1494 1490 1486 1482 1479 1475 1472 1470 1467 1465 1463 1462 1460 1459 1458 1458 1458 1458 1459 1463 1464 1462 1460 1461 1462 1462 1463 1465 1467 1470 1473 1475 1478 1482 1482 1487 1486 1487 1488 1489 1493 1495 1495 1493 1489 1491
1496 1492 1487 1483 1479 1475 1472 1469 1466 1463 1461 1459 1457 1456 1455 1455 1454 1455 1455 1456 1457 1458 1457 1457 1459 1460 1461 1462 1465 1467 1470 1472 1473 1479 1481 1486 1485 1480 1481 1486 1489 1492 1494 1497 1491 1488 1491
1494 1489 1485 1481 1477 1473 1469 1465 1462 1460 1457 1455 1453 1452 1451 1451 1451 1452 1452 1454 1454 1455 1457 1457 1457 1458 1461 1463 1463 1465 1468 1469 1472 1478 1481 1483 1477 1476 1480 1486 1489 1492 1494 1493 1489 1489 1489
1492 1487 1483 1479 1475 1470 1466 1462 1459 1456 1453 1451 1449 1447 1447 1448 1451 1449 1450 1452 1453 1454 1464 1458 1457 1457 1459 1460 1463 1464 1467 1469 1472 1476 1481 1480 1475 1477 1479 1481 1484 1488 1481 1482 1487 1490 1492
1491 1486 1482 1477 1473 1468 1463 1459 1455 1452 1449 1446 1445 1443 1442 1443 1445 1446 1449 1450 1452 1454 1478 1458 1456 1457 1457 1460 1463 1465 1466 1467 1471 1473 1477 1475 1473 1476 1478 1476 1477 1478 1478 1483 1485 1490 1491
1491 1487 1482 1476 1472 1466 1461 1456 1452 1448 1445 1442 1441 1440 1439 1440 1443 1445 1447 1449 1452 1462 1474 1457 1455 1456 1458 1460 1463 1465 1466 1468 1470 1472 1474 1474 1472 1472 1472 1472 1474 1476 1480 1487 1493 1494 1495
1491 1487 1481 1476 1471 1464 1459 1454 1449 1445 1441 1439 1440 1440 1439 1440 1442 1444 1446 1449 1460 1464 1455 1461 1460 1458 1462 1467 1466 1467 1476 1482 1484 1478 1480 1476 1472 1471 1471 1473 1475 1476 1482 1491 1490 1497 1484
1489 1485 1480 1474 1468 1463 1458 1452 1447 1441 1437 1436 1439 1439 1439 1439 1440 1443 1446 1451 1454 1460 1462 1461 1461 1461 1467 1471 1473 1474 1480 1488 1488 1488 1488 1485 1480 1476 1474 1473 1473 1478 1481 1487 1485 1489 1483
1489 1484 1479 1474 1468 1462 1457 1452 1445 1439 1435 1436 1438 1439 1439 1438 1439 1443 1447 1456 1461 1462 1465 1464 1461 1463 1471 1472 1471 1479 1484 1487 1491 1492 1485 1491 1481 1480 1477 1476 1476 1478 1481 1479 1480 1487 1490
1489 1483 1479 1474 1467 1461 1456 1451 1445 1439 1436 1437 1439 1439 1439 1438 1440 1444 1448 1458 1466 1466 1465 1464 1461 1469 1471 1476 1473 1478 1487 1492 1490 1492 1491 1497 1490 1487 1482 1476 1477 1478 1484 1481 1487 1483 1485
1490 1485 1479 1474 1468 1461 1456 1450 1445 1440 1438 1438 1439 1439 1440 1439 1442 1444 1456 1462 1466 1468 1466 1465 1467 1472 1476 1477 1477 1483 1488 1496 1495 1494 1493 1497 1497 1489 1484 1499 1497 1492 1496 1498 1495 1501 1482
1492 1486 1480 1475 1469 1462 1456 1450 1444 1440 1438 1439 1439 1440 1439 1440 1445 1454 1461 1464 1467 1470 1468 1469 1472 1475 1478 1483 1485 1486 1491 1495 1496 1496 1498 1501 1507 1506 1508 1508 1503 1505 1510 1508 1500 1507 1513
1492 1489 1481 1476 1470 1464 1457 1451 1444 1439 1437 1437 1437 1439 1439 1439 1451 1461 1466 1469 1473 1473 1476 1475 1480 1481 1482 1488 1490 1490 1494 1500 1498 1498 1502 1501 1510 1524 1505 1509 1504 1516 1523 1521 1518 1520 1524
1495 1490 1483 1477 1472 1466 1459 1452 1445 1438 1435 1437 1438 1442 1443 1443 1452 1457 1465 1472 1476 1477 1479 1481 1484 1483 1485 1491 1492 1495 1497 1500 1500 1500 1499 1499 1509 1513 1515 1510 1514 1521 1527 1528 1531 1548 1538
1496 1492 1485 1480 1474 1466 1460 1454 1446 1438 1435 1437 1439 1452 1454 1460 1461 1461 1464 1472 1476 1479 1481 1482 1486 1487 1488 1492 1495 1499 1501 1501 1501 1501 1501 1504 1519 1513 1512 1509 1516 1533 1531 1532 1534 1553 1538
1498 1493 1487 1482 1476 1470 1464 1458 1451 1442 1437 1436 1443 1450 1457 1462 1465 1466 1470 1478 1478 1483 1483 1485 1486 1489 1490 1493 1496 1500 1500 1502 1504 1504 1505 1507 1519 1515 1524 1519 1521 1540 1542 1538 1539 1551 1558
1500 1495 1490 1485 1479 1473 1467 1461 1455 1448 1443 1443 1450 1452 1455 1467 1467 1468 1477 1479 1482 1482 1488 1488 1489 1491 1494 1497 1497 1499 1500 1502 1505 1507 1509 1510 1516 1530 1543 1521 1526 1539 1552 1542 1546 1552 1552
1503 1498 1492 1487 1481 1477 1472 1467 1462 1457 1454 1454 1453 1454 1457 1473 1471 1474 1478 1479 1483 1484 1487 1491 1491 1492 1496 1496 1498 1499 1501 1503 1506 1507 1508 1511 1515 1525 1540 1522 1545 1553 1551 1551 1550 1557 1557
1504 1500 1496 1490 1486 1481 1476 1472 1469 1465 1462 1459 1457 1458 1460 1472 1475 1479 1480 1483 1485 1486 1489 1491 1492 1493 1494 1496 1499 1502 1505 1506 1511 1512 1511 1511 1515 1530 1536 1540 1551 1556 1555 1556 1556 1558 1558
1507 1502 1498 1493 1489 1484 1480 1476 1472 1469 1467 1465 1463 1462 1464 1468 1481 1480 1481 1483 1486 1490 1492 1492 1493 1492 1493 1494 1495 1527 1519 1501 1509 1514 1515 1515 1517 1523 1546 1537 1537 1558 1555 1554 1555 1556 1558
1509 1504 1499 1495 1490 1486 1483 1480 1475 1472 1470 1469 1467 1466 1466 1471 1479 1481 1481 1484 1486 1488 1492 1493 1492 1492 1493 1495 1501 1521 1514 1511 1521 1521 1532 1528 1537 1545 1547 1550 1555 1556 1554 1554 1557 1557 1557
1509 1505 1501 1496 1492 1488 1485 1482 1478 1475 1472 1471 1470 1469 1468 1472 1480 1481 1482 1484 1486 1487 1490 1491 1493 1494 1496 1501 1505 1511 1515 1524 1532 1541 1549 1550 1558 1557 1564 1561 1551 1554 1554 1556 1556 1554 1554
1509 1505 1501 1497 1493 1489 1486 1482 1479 1476 1473 1472 1472 1472 1471 1473 1482 1483 1484 1486 1487 1487 1488 1491 1494 1496 1499 1502 1508 1515 1530 1534 1540 1555 1547 1552 1558 1556 1556 1554 1553 1553 1552 1553 1553 1553 1550